Torna al catalogo

APRIZESAT 3

AttivoComunicazioniPO
NORAD 35686·PAYLOAD·🇺🇸 United States

Lanciato Jul 29, 2009 da Baikonur Cosmodrome

Loading…

Prossimi Passaggi (prossime 24 ore)

TLE

AggiornatoSource: Space-Track

Epoca: Sep 13, 2026, 21:40 UTC

1 35686U 09041F   26256.90299819  .00001160  00000-0  10415-3 0  9992
2 35686  98.2180  54.4580 0062216 133.5489 227.0923 14.96449116929644

Traccia APRIZESAT 3 in tempo reale con AllMySat

Download on the App Store